{"data":{"norad_id":62897,"intl_designator":"2025-024U","name":"STARLINK-32893","alt_names":[],"object_type":"PAYLOAD","status":"ACTIVE","operator":null,"country":"US","launch_date":"2025-02-04","launch_site_code":"AFETR","launch_vehicle":null,"mission":null,"orbit_class":"UNKNOWN","rcs_meters":null,"size_class":null,"mass_kg":null,"dimensions":null,"purposes":["comms"],"wikipedia_slug":null,"has_3d_model":false,"image_url":null,"decayed_at":null,"tle_current":{"epoch":"2026-05-25T00:28:35.458176Z","epoch_age_seconds":72639,"freshness":"FRESH","line1":"1 62897U 25024U   26145.01985484  .00011059  00000+0  41067-3 0  9998","line2":"2 62897  43.0027 253.9471 0002442 272.7652  87.2920 15.27589160 73949","mean_motion":15.2758916,"eccentricity":0.0002442,"inclination_deg":43.0027,"raan_deg":253.9471,"arg_perigee_deg":272.7652,"mean_anomaly_deg":87.292,"bstar":0.00041067,"rev_number":7394,"period_min":94.266183454719,"perigee_km":481.34617289473,"apogee_km":484.69716278811,"semimajor_km":6861.1586678414,"source":"CELESTRAK","updated_at":"2026-05-25T13:38:19.792161Z"}}}